Wind_Speed
36 37 38 38 38 39 42 42 42 41 41 41 41 40 40 40 38 38 36 35 34 34 34 34 33 33 33 33 33 33 33 33 33 32 32 33 33 33 34 34 34 35 35
35 37 37 38 37 37 39 41 42 42 41 41 42 41 40 40 40 39 38 36 35 35 35 35 36 36 36 35 35 35 34 34 34 34 33 33 33 33 34 34 35 35 35
35 36 37 37 38 37 38 39 41 41 42 42 42 42 41 41 41 40 39 38 37 36 36 36 35 36 37 36 35 35 35 35 34 34 34 34 34 33 34 34 34 34 34
33 34 36 37 38 38 38 39 39 40 41 42 42 43 42 41 41 41 40 39 39 37 36 37 36 36 36 36 35 34 35 34 34 35 35 35 34 33 32 32 33 33 34
31 32 33 36 37 38 39 39 40 40 41 41 42 43 42 42 42 41 41 39 39 38 36 36 36 36 35 35 35 34 33 33 33 33 33 32 33 33 32 31 31 32 34
31 32 32 34 36 37 39 39 39 40 40 41 42 43 43 42 42 42 41 39 38 39 38 38 37 35 34 34 35 34 34 34 33 33 33 33 32 32 32 32 32 33 34
31 31 32 32 34 36 38 38 39 39 40 41 42 42 43 44 43 41 41 41 39 39 39 39 37 35 34 33 33 33 33 34 33 33 33 33 34 34 33 33 33 34 34
31 31 32 32 33 35 37 38 38 38 39 40 41 42 43 44 44 42 41 41 40 40 39 38 38 38 36 34 34 34 34 34 33 34 34 33 33 34 35 35 35 34 34
30 31 31 33 34 35 36 37 38 38 38 40 41 41 41 43 43 43 41 41 41 40 40 39 38 38 37 37 36 36 35 35 35 34 34 33 33 34 34 35 35 35 34
30 30 31 32 33 34 36 37 37 38 38 40 41 41 41 42 42 43 42 41 41 41 40 40 38 39 37 36 35 35 35 34 34 34 34 33 33 34 34 34 35 35 35
30 31 31 31 32 33 35 36 37 38 39 39 40 40 40 41 42 42 42 42 41 41 40 40 40 39 38 37 36 35 35 35 34 34 34 34 34 34 34 34 34 34 33
29 30 31 32 33 34 35 36 37 38 38 39 39 40 40 41 41 41 42 42 41 41 41 41 41 41 40 39 37 36 35 35 35 35 34 33 33 33 33 33 33 33 32
29 29 30 31 32 33 35 36 37 38 38 39 39 40 40 40 41 41 42 43 42 41 41 41 41 41 40 39 38 37 37 37 36 36 35 34 34 33 33 33 33 32 32
29 30 31 31 32 33 34 35 37 37 38 38 39 39 40 40 40 41 42 42 42 42 41 41 40 40 40 39 38 39 39 38 38 37 36 35 34 34 34 33 32 31 31
29 30 31 31 32 32 33 34 36 36 37 37 38 39 40 40 40 40 41 41 41 41 42 41 41 41 41 40 40 39 39 38 38 36 35 34 34 33 33 32 32 32 31
29 29 30 31 32 33 33 34 35 37 37 37 38 38 39 39 40 39 40 40 40 41 41 41 41 41 41 40 40 40 39 38 37 36 35 36 34 32 33 33 33 32 32
29 30 30 31 31 32 33 34 35 36 37 38 38 38 38 39 39 40 40 40 40 41 41 41 41 41 40 40 40 39 38 38 37 37 36 35 35 33 33 33 33 32 32
29 29 31 31 31 31 32 33 34 35 37 38 38 38 39 39 39 39 40 40 40 41 41 41 41 40 40 40 40 39 38 38 37 36 36 35 34 33 32 32 32 32 32
28 29 29 30 31 31 32 33 34 35 37 37 37 38 39 39 40 39 39 40 40 40 40 40 40 39 40 40 40 39 38 38 37 37 35 34 33 33 33 33 33 32 32
28 29 29 29 30 31 31 32 34 35 36 36 36 37 38 39 39 39 39 39 39 39 39 39 40 40 40 41 41 40 39 38 37 37 36 35 35 34 34 34 33 32 32
28 28 29 29 29 30 31 31 32 33 35 35 34 34 36 37 37 38 38 37 38 38 38 38 39 39 40 40 40 40 40 39 38 37 37 36 35 34 34 33 33 32 32
28 28 29 29 29 29 30 30 31 32 34 35 36 35 34 35 36 36 35 36 37 38 38 38 39 39 39 39 39 39 39 39 38 37 37 36 35 34 34 33 33 32 31
29 29 30 30 30 30 30 30 31 32 33 34 35 36 35 34 35 35 35 35 36 37 38 38 39 39 39 39 39 39 38 38 37 37 36 35 35 34 33 32 31 31 31
29 30 30 30 30 30 31 31 31 32 33 33 34 34 35 35 35 35 35 35 36 36 36 37 37 38 38 39 39 39 38 37 36 35 34 34 34 33 32 31 30 30 30
28 29 29 29 30 31 31 31 31 32 32 32 33 33 33 34 34 34 34 34 34 35 36 36 37 37 37 37 37 36 36 35 34 34 33 33 32 32 32 31 30 30 29
28 28 29 29 30 30 30 30 31 31 31 31 31 32 32 33 33 33 33 34 34 35 35 35 35 35 35 35 35 34 34 34 34 33 32 32 32 31 31 31 30 30 28
Wind_Direction
228 230 231 232 232 234 234 235 236 236 236 236 237 239 241 242 244 246 249 251 253 255 258 261 264 266 268 269 272 275 277 279 281 284 286 288 289 292 293 294 296 298 298
229 231 233 233 233 234 235 236 236 236 236 236 237 240 242 244 245 248 249 251 254 256 258 260 264 266 268 269 272 274 277 278 280 281 283 285 289 292 293 294 295 296 297
231 232 233 234 235 235 236 237 237 237 237 238 239 241 243 245 247 249 251 252 255 257 257 260 264 266 267 269 272 274 276 277 279 280 281 283 287 290 292 293 294 296 297
235 234 235 236 236 236 236 237 238 239 239 239 240 242 243 244 245 249 252 254 256 258 260 261 263 266 267 268 270 273 275 276 278 280 281 284 286 289 291 292 293 295 297
238 237 237 237 237 237 236 238 240 241 240 240 241 241 243 245 246 248 252 254 256 257 260 262 265 267 269 269 269 271 274 277 278 278 280 284 287 288 290 293 294 295 298
240 239 240 239 239 239 239 239 240 241 242 240 241 241 243 245 246 248 250 253 254 257 259 261 263 266 267 268 269 271 273 275 277 279 280 283 286 288 288 291 293 295 297
243 242 243 243 241 241 240 241 242 242 242 242 243 243 244 245 246 249 250 254 256 257 260 262 263 265 267 268 270 272 274 275 278 279 281 284 285 288 289 291 293 295 297
244 245 244 245 244 242 241 241 242 243 243 244 245 245 246 246 247 250 252 255 257 257 259 262 263 264 266 267 269 271 273 274 277 279 282 285 287 288 289 291 293 295 296
245 246 246 247 245 244 243 243 243 244 244 244 245 246 247 247 248 250 252 253 256 258 259 260 262 265 266 268 270 270 272 274 277 279 282 284 287 288 289 290 293 295 297
245 246 246 246 247 246 244 243 244 244 245 246 246 246 248 249 250 251 252 254 256 258 259 258 261 263 265 267 269 271 272 275 278 279 281 283 286 288 288 291 293 294 297
248 247 246 247 248 248 247 246 246 247 247 248 248 249 249 250 251 252 252 254 256 257 258 261 262 263 264 266 268 271 274 275 277 279 281 283 285 286 287 290 292 294 296
250 249 249 249 250 250 250 249 248 248 249 249 250 251 251 251 252 253 254 254 256 257 258 260 262 263 264 266 268 269 270 273 276 278 281 283 284 285 286 288 290 292 294
250 250 252 251 252 252 251 250 249 249 249 250 250 251 252 252 254 255 255 255 255 257 259 261 262 263 264 265 266 268 269 272 275 278 279 280 281 282 284 287 289 290 292
253 253 253 253 253 254 253 251 250 250 251 251 251 252 252 253 255 256 256 256 257 258 259 260 260 261 263 264 266 268 269 271 273 275 277 278 279 280 283 285 288 289 291
255 255 254 254 255 256 255 253 251 251 251 251 252 253 253 254 255 255 256 257 258 259 259 260 261 261 262 263 265 267 268 270 272 273 275 276 278 280 281 284 287 288 290
255 257 257 256 256 258 257 255 253 252 252 252 253 254 255 255 255 256 257 259 259 260 260 261 261 262 263 263 265 265 267 270 271 270 271 274 275 278 281 284 286 287 289
257 257 258 259 258 258 259 257 255 254 253 253 253 254 255 256 256 256 257 259 260 261 261 261 261 262 262 263 264 265 267 268 268 268 270 272 273 276 280 283 285 286 289
258 258 260 260 260 259 259 259 256 255 255 255 255 255 256 256 256 257 257 258 259 261 260 260 260 260 261 262 264 265 266 267 267 267 268 270 271 273 276 280 282 284 288
261 261 262 262 262 261 261 260 258 257 256 256 257 257 256 257 257 258 258 259 259 259 260 259 260 261 261 263 264 265 265 265 266 266 267 268 270 272 275 278 281 283 286
265 264 264 265 265 264 264 263 260 258 257 257 257 257 257 258 258 258 259 259 259 259 260 261 261 261 262 263 265 265 264 264 264 265 267 268 270 272 274 277 279 281 283
268 267 266 267 267 266 265 264 261 259 258 258 258 258 258 259 259 260 259 260 260 260 261 262 262 262 262 263 264 264 264 264 264 264 265 267 268 270 272 274 277 279 281
269 269 269 268 267 266 265 264 263 262 260 259 259 259 258 258 258 260 261 261 261 261 261 261 262 263 263 263 263 263 262 263 263 263 263 264 266 268 269 272 275 277 280
270 269 269 268 267 267 266 265 264 264 264 263 262 260 259 259 260 261 261 261 261 261 261 262 262 263 263 263 262 261 261 261 262 261 262 262 263 265 267 271 273 276 279
272 271 269 267 267 267 266 266 266 265 266 265 264 263 262 260 261 262 262 262 263 263 263 263 263 264 264 263 261 260 259 259 259 259 261 261 262 263 265 269 272 275 278
274 272 270 268 267 267 267 266 266 266 266 266 264 264 264 264 262 262 262 262 263 264 264 265 264 264 264 263 261 258 257 257 256 257 258 260 261 262 264 267 270 272 275
275 272 270 269 268 268 268 268 268 268 267 266 265 264 264 265 264 263 263 263 264 264 264 265 265 265 264 261 259 258 257 255 254 254 256 259 260 261 263 265 268 269 271
Height
5714 5719 5723 5727 5731 5735 5740 5744 5749 5753 5758 5762 5766 5769 5772 5775 5778 5780 5782 5784 5787 5788 5789 5790 5790 5790 5790 5791 5790 5790 5789 5789 5788 5787 5786 5784 5783 5781 5778 5776 5774 5771 5769
5708 5712 5716 5720 5724 5729 5733 5737 5741 5745 5750 5754 5758 5761 5764 5767 5770 5772 5774 5777 5779 5780 5781 5782 5783 5783 5783 5782 5782 5782 5782 5781 5781 5780 5779 5778 5776 5773 5771 5769 5766 5764 5761
5701 5705 5709 5713 5717 5721 5725 5729 5733 5737 5741 5745 5749 5753 5756 5759 5762 5764 5766 5769 5770 5771 5772 5773 5774 5774 5774 5774 5774 5774 5774 5774 5773 5772 5771 5770 5769 5767 5765 5762 5759 5756 5753
5695 5698 5702 5705 5710 5714 5718 5722 5725 5729 5733 5737 5741 5744 5747 5750 5753 5756 5758 5760 5762 5763 5764 5765 5766 5766 5766 5766 5766 5766 5766 5765 5765 5764 5763 5762 5760 5759 5758 5756 5752 5749 5746
5689 5692 5695 5698 5702 5706 5710 5714 5717 5721 5724 5728 5732 5735 5738 5741 5744 5747 5749 5751 5753 5755 5755 5756 5757 5758 5758 5758 5758 5758 5758 5757 5757 5756 5755 5754 5753 5751 5750 5749 5746 5742 5739
5683 5686 5688 5691 5695 5698 5702 5705 5709 5713 5716 5719 5723 5727 5730 5733 5736 5738 5740 5742 5744 5746 5748 5749 5749 5750 5750 5750 5750 5750 5750 5749 5749 5748 5747 5746 5746 5744 5742 5741 5738 5735 5732
5676 5679 5682 5684 5688 5691 5694 5698 5701 5704 5708 5711 5714 5717 5721 5724 5726 5729 5731 5733 5735 5737 5739 5740 5741 5741 5741 5741 5741 5742 5741 5741 5741 5740 5739 5738 5737 5736 5734 5733 5731 5728 5725
5670 5672 5675 5677 5680 5683 5687 5690 5693 5696 5699 5702 5706 5708 5711 5714 5717 5719 5722 5724 5726 5728 5730 5731 5732 5732 5733 5733 5733 5733 5733 5733 5732 5732 5731 5730 5729 5727 5726 5724 5722 5721 5718
5664 5666 5668 5670 5673 5676 5679 5682 5685 5688 5691 5694 5697 5699 5702 5705 5707 5710 5712 5715 5717 5718 5720 5722 5723 5723 5724 5725 5725 5725 5725 5725 5725 5724 5723 5722 5721 5719 5718 5716 5714 5712 5710
5657 5659 5661 5663 5665 5668 5670 5673 5676 5679 5682 5685 5688 5690 5693 5696 5698 5700 5703 5705 5707 5709 5711 5712 5713 5715 5715 5716 5717 5717 5717 5717 5716 5716 5715 5714 5713 5711 5710 5707 5705 5703 5700
5650 5652 5654 5656 5658 5660 5663 5665 5668 5671 5674 5676 5679 5682 5684 5687 5689 5691 5694 5696 5698 5700 5701 5703 5704 5705 5706 5707 5708 5708 5708 5708 5708 5708 5707 5706 5705 5704 5702 5700 5697 5695 5692
5644 5645 5647 5649 5651 5653 5655 5657 5660 5662 5665 5668 5670 5673 5675 5677 5680 5682 5684 5686 5688 5690 5692 5693 5695 5696 5697 5698 5699 5699 5700 5700 5700 5699 5699 5698 5697 5695 5694 5692 5690 5687 5684
5637 5639 5640 5642 5644 5645 5647 5649 5651 5653 5656 5659 5661 5664 5666 5668 5670 5672 5674 5676 5678 5680 5682 5683 5685 5686 5687 5688 5689 5690 5690 5690 5690 5690 5690 5689 5688 5687 5685 5684 5682 5679 5677
5630 5632 5633 5635 5636 5637 5639 5640 5642 5644 5647 5649 5652 5654 5657 5659 5661 5662 5664 5666 5668 5670 5672 5673 5674 5676 5677 5678 5679 5680 5681 5681 5681 5681 5681 5680 5679 5678 5677 5676 5674 5671 5669
5624 5625 5626 5627 5629 5630 5631 5632 5634 5636 5638 5640 5643 5645 5647 5649 5651 5653 5654 5656 5658 5660 5661 5663 5664 5665 5667 5668 5669 5670 5671 5671 5672 5672 5672 5671 5670 5669 5668 5667 5665 5663 5661
5617 5618 5619 5620 5621 5622 5623 5624 5625 5627 5629 5631 5633 5635 5637 5639 5641 5643 5644 5646 5648 5649 5651 5652 5653 5655 5656 5657 5658 5659 5660 5661 5662 5662 5662 5662 5662 5661 5660 5658 5657 5655 5653
5610 5611 5611 5612 5613 5614 5615 5615 5617 5618 5620 5622 5624 5626 5628 5629 5631 5633 5634 5636 5638 5639 5641 5642 5643 5644 5645 5646 5648 5649 5650 5651 5652 5652 5653 5653 5653 5652 5651 5650 5648 5647 5645
5603 5603 5604 5604 5605 5605 5606 5607 5608 5609 5611 5612 5614 5616 5617 5619 5621 5623 5624 5626 5628 5629 5630 5631 5633 5634 5635 5636 5637 5638 5639 5640 5641 5642 5643 5643 5643 5643 5642 5641 5640 5639 5637
5595 5595 5596 5596 5596 5597 5597 5598 5599 5600 5602 5603 5605 5606 5608 5609 5611 5613 5614 5615 5617 5618 5619 5620 5622 5623 5624 5625 5626 5627 5628 5630 5631 5632 5633 5633 5634 5634 5634 5633 5632 5631 5629
5587 5587 5588 5588 5588 5588 5589 5589 5590 5591 5592 5594 5595 5596 5598 5599 5601 5602 5603 5605 5606 5607 5608 5609 5611 5612 5613 5614 5615 5616 5618 5620 5621 5622 5623 5624 5624 5624 5624 5624 5624 5623 5622
5579 5579 5579 5579 5579 5579 5580 5580 5581 5582 5583 5584 5585 5586 5588 5589 5590 5592 5593 5594 5595 5596 5598 5599 5600 5601 5602 5603 5604 5605 5607 5608 5610 5611 5612 5613 5614 5614 5615 5615 5615 5614 5613
5571 5571 5571 5571 5571 5571 5571 5572 5572 5573 5574 5575 5576 5576 5578 5579 5580 5581 5582 5583 5584 5585 5587 5588 5589 5590 5591 5592 5593 5594 5596 5597 5599 5600 5602 5603 5604 5605 5605 5606 5606 5605 5604
5564 5563 5563 5563 5563 5563 5563 5563 5563 5564 5565 5565 5566 5566 5567 5569 5570 5571 5572 5573 5573 5575 5576 5577 5578 5579 5580 5581 5582 5583 5584 5586 5588 5589 5591 5592 5594 5595 5596 5596 5597 5596 5596
5555 5555 5555 5554 5554 5554 5554 5554 5555 5555 5555 5556 5556 5557 5558 5559 5560 5561 5561 5562 5563 5564 5565 5566 5567 5568 5569 5569 5570 5571 5573 5575 5577 5579 5581 5582 5584 5585 5586 5587 5588 5588 5588
5547 5546 5546 5546 5546 5546 5546 5546 5546 5546 5546 5546 5547 5547 5548 5548 5550 5551 5551 5552 5553 5553 5555 5555 5556 5557 5558 5558 5559 5560 5562 5564 5567 5569 5571 5573 5574 5576 5577 5578 5579 5579 5579
5538 5538 5537 5537 5537 5537 5537 5537 5537 5537 5537 5537 5537 5538 5538 5539 5540 5541 5542 5542 5543 5543 5544 5545 5546 5546 5547 5547 5549 5550 5552 5554 5556 5559 5561 5563 5565 5567 5568 5569 5570 5571 5571